Regional Weather Roundup
Issued by NWS

Home | Current Version | Previous Version | Graphics & Text | Print | Product List | Glossary On
Versions: 1 2 3 4 5 6 7 8 9 10 11 12 13 14 15 16 17 18 19 20 21 22 23 24 25 26 27 28 29 30 31 32 33 34 35 36 37 38 39 40 41 42 43 44 45 46 47 48 49 50
695
ASUS45 KBOU 270707
RWRCO

WEATHER ROUNDUP FOR COLORADO
NATIONAL WEATHER SERVICE DENVER/BOULDER CO
100 AM MDT MON MAR 27 2017

NOTE: "FAIR" INDICATES FEW OR NO CLOUDS BELOW 12000 FEET WITH NO
SIGNIFICANT WEATHER AND/OR OBSTRUCTIONS TO VISIBILITY.

COZ001>005-013-030-031-270800-
...NORTHWEST COLORADO...

CITY           SKY/WX    TMP DP  RH WIND       PRES   REMARKS
CRAIG          FAIR      29  23  78 CALM      29.98F
HAYDEN         FAIR      34  25  69 CALM      29.99R
MEEKER         FAIR      31  25  78 NE5       29.99S WCI  26
MOUNT WERNER   NOT AVBL
STEAMBOAT SPGS MOCLDY    31  28  86 CALM      29.99S
WALDEN         NOT AVBL
$$

COZ006>008-011-270800-
...WEST CENTRAL VALLEYS...

CITY           SKY/WX    TMP DP  RH WIND       PRES   REMARKS
GRAND JUNCTION CLOUDY    44  21  40 NE8       29.95F
MONTROSE       FAIR      39  33  79 SE9       30.01F
EAGLE          FAIR      34  24  67 E3        30.02S
RIFLE          FAIR      36  28  73 CALM      29.99S
DELTA          FAIR      44  30  57 CALM      29.99F
NUCLA          FAIR      41  32  70 E10       30.04S
$$

COZ017>023-064>068-270800-
...SOUTHWEST COLORADO...

CITY           SKY/WX    TMP DP  RH WIND       PRES   REMARKS
DURANGO        FAIR      37  27  67 CALM      30.02F
CORTEZ         FAIR      33  30  88 NE5       30.02S WCI  29
PAGOSA SPRINGS FAIR      35  32  90 N5        30.07S WCI  31
TELLURIDE      FAIR      33  26  76 CALM      30.10S
WOLF CREEK PAS HVY SNOW  23  23 100 SW13G20   30.17S VSB<1/4 WCI  11
$$

COZ009-010-012-014-032>034-037-058>063-270800-
...CENTRAL COLORADO...

CITY           SKY/WX    TMP DP  RH WIND       PRES   REMARKS
ASPEN          FAIR      33  23  66 VRB3      30.02S
BUENA VISTA    FAIR      34  25  70 CALM      30.02R
COPPER MTN     FAIR      27  18  69 MISG      30.08F
BERTHOUD PASS  MOCLDY    18   5  57 NW21G30   30.05F WCI   1
COTTONWOOD PAS FAIR      36  19  51 W17G24    30.04S
GUNNISON       FAIR      31  25  78 CALM      30.05F
KREMMLING      FAIR      32  30  93 CALM      30.02S
LEADVILLE      FAIR      28  19  69 N9        30.04F WCI  19
MONARCH PASS   CLOUDY    23  21  93 W31       30.19S FOG     WCI   5
SALIDA         FAIR      38  34  85 SE10      30.08F
SUNLIGHT       FAIR      25  21  86 SW12G17   30.11F WCI  14
WILKERSON PASS FOG       25  23  93 SW9       30.07F VSB 1   WCI  15
$$

COZ069>075-270800-
...SAN LUIS VALLEY/SANGRE DE CRISTO MOUNTAINS...

CITY           SKY/WX    TMP DP  RH WIND       PRES   REMARKS
ALAMOSA        FAIR      32  29  88 SW5       30.02R WCI  27
LA VETA PASS   NOT AVBL
SAGUACHE       FAIR      36  23  60 NW7       30.04S
$$

COZ035-036-038>040-270800-
...NORTHERN COLORADO FRONT RANGE...

CITY           SKY/WX    TMP DP  RH WIND       PRES   REMARKS
DENVER INTL AP FAIR      37  33  85 SE7       29.96F
DMNS CITY PARK   N/A     41  39  94 N1        29.97S
AURORA         PTCLDY    40  40  99 SE5       29.97F
FRONT RANGE AP FAIR      36  34  93 SE6       29.98F
ERIE MUNI ARPT CLOUDY    40  38  93 CALM      29.97F
BOULDER MUN AP CLOUDY    43  41  93 CALM      29.96F
CENTENNIAL     FAIR      39  35  86 CALM      29.96F
BROOMFIELD     CLOUDY    41  37  87 N3        29.97F
FORT COLLINS   FAIR      39  35  86 CALM      29.97F
LONGMONT       MOCLDY    44  39  82 CALM      29.99S
$$

COZ041-046-047-076>085-087-088-270800-
...PIKES PEAK/PALMER DIVIDE AND SOUTHERN FOOTHILLS...

CITY           SKY/WX    TMP DP  RH WIND       PRES   REMARKS
COLO. SPRINGS  MOCLDY    42  38  85 S7        30.00S
A. F. ACADEMY  CLOUDY    41  37  87 S5        29.98F
SCHRIEVER AFB  MOCLDY    40  38  94 SW5       30.00S
ELLICOTT         N/A    N/A N/A N/A CALM      29.98F
FALCON         CLOUDY    39  38  97 SW7       30.01S
FORT CARSON    FAIR      40  38  95 SE6       29.98S
LIMON          FAIR      28  28 100 NW3       29.98S
MONUMENT HILL  CLOUDY    36  32  87 S5        30.01S
TRINIDAD       FAIR      36  34  92 W8        29.98F
$$

COZ042>045-048>051-090-091-270800-
...NORTHEAST COLORADO...

CITY           SKY/WX    TMP DP  RH WIND       PRES   REMARKS
GREELEY ARPT   FAIR      33  28  81 NW6       29.98F WCI  28
AKRON          FAIR      36  32  85 NW6       29.96S
BURLINGTON     FAIR      35  33  92 W9        29.95F WCI  28
WRAY           NOT AVBL
STERLING       FAIR      36  34  93 CALM      29.95S
HOLYOKE        FAIR      41  36  81 NW8       29.94S
FORT MORGAN    FAIR      34  31  90 W3        29.97S
$$

COZ086-089-092>099-270800-
...SOUTHEAST COLORADO...

CITY           SKY/WX    TMP DP  RH WIND       PRES   REMARKS
PUEBLO         FAIR      40  35  83 NE5       29.97S
LA JUNTA       FAIR      39  35  86 SW6       29.97S
LAMAR          FAIR      28  26  92 SW9       29.96S WCI  19
SPRINGFIELD      N/A     30  29  96 NW9       29.96F WCI  22
$$




USA.gov is the U.S. government's official web portal to all federal, state and local government web resources and services.